This is the latest recevied weather packets stored in our database for station/object DJ2RF. If no packets are shown the sender has not sent any weather packets the latest 10 day(s).
| Time | Temp. | Humidity | Pressure | Rain* | Wind** | Luminosity | Snow |
|---|---|---|---|---|---|---|---|
| 1778080641 | 19.44° C | 64% | 1006.8 hPa | 0 mm | - | - | - |
| 1778080071 | 18.33° C | 65% | 1006.6 hPa | 0 mm | - | - | - |
| 1778079556 | 17.78° C | 64% | 1006.6 hPa | 0 mm | - | - | - |
| 1778078972 | 17.78° C | 64% | 1006.8 hPa | 0 mm | - | - | - |
| 1778078432 | 18.33° C | 65% | 1006.7 hPa | 0 mm | - | - | - |
| 1778077856 | 18.33° C | 62% | 1006.6 hPa | 0 mm | - | - | - |
| 1778077342 | 18.89° C | 60% | 1007 hPa | 0 mm | - | - | - |
| 1778076760 | 18.89° C | 60% | 1006.9 hPa | 0 mm | - | - | - |
| 1778076217 | 19.44° C | 60% | 1006.8 hPa | 0 mm | - | - | - |
| 1778075726 | 19.44° C | 58% | 1006.8 hPa | 0 mm | - | - | - |
| 1778075145 | 20° C | 57% | 1006.7 hPa | 0 mm | - | - | - |
| 1778074637 | 20° C | 58% | 1006.7 hPa | 0 mm | - | - | - |
| 1778074152 | 20.56° C | 53% | 1006.7 hPa | 0 mm | - | - | - |
| 1778073653 | 20.56° C | 55% | 1006.8 hPa | 0 mm | - | - | - |
| 1778073068 | 21.11° C | 56% | 1006.8 hPa | 0 mm | - | - | - |
| 1778072590 | 20.56° C | 57% | 1006.9 hPa | 0 mm | - | - | - |
| 1778072087 | 20° C | 58% | 1006.8 hPa | 0 mm | - | - | - |
| 1778071587 | 20° C | 60% | 1006.8 hPa | 0 mm | - | - | - |
| 1778070997 | 20° C | 60% | 1007 hPa | 0 mm | - | - | - |
| 1778070453 | 19.44° C | 60% | 1007.2 hPa | 0 mm | - | - | - |
| 1778069940 | 19.44° C | 60% | 1007.2 hPa | 0 mm | - | - | - |
| 1778069425 | 19.44° C | 60% | 1007.2 hPa | 0 mm | - | - | - |
| 1778068896 | 20° C | 55% | 1007.4 hPa | 0 mm | - | - | - |
| 1778068391 | 20° C | 56% | 1007.5 hPa | 0 mm | - | - | - |
| 1778067907 | 19.44° C | 58% | 1007.5 hPa | 0 mm | - | - | - |
* Rain latest hour (hover to see other rain measurements)
** Current wind speed in m/s (hover to see current wind gust speed)